Time,TemperatureF,DewpointF,PressureIn,WindDirection,WindDirectionDegrees,WindSpeedMPH,WindSpeedGustMPH,Humidity,HourlyPrecipIn,Conditions,Clouds,dailyrainin,SoftwareType,DateUTC
2013-10-01 00:01:00,55.0,54.2,30.06,East,100,0.0,0.0,97,0.00,RA,,0.00,WeatherDisplay:10.37,2013-10-01 04:01:00,
2013-10-01 00:06:00,55.1,54.3,30.06,East,101,0.0,0.0,97,0.00,RA,,0.00,WeatherDisplay:10.37,2013-10-01 04:06:00,
2013-10-01 00:11:00,55.0,54.2,30.06,East,100,0.0,0.0,97,0.00,CLR,,0.00,WeatherDisplay:10.37,2013-10-01 04:11:00,
2013-10-01 00:16:00,54.8,54.0,30.06,East,100,0.0,0.0,97,0.00,CLR,,0.00,WeatherDisplay:10.37,2013-10-01 04:16:00,
2013-10-01 00:21:00,54.7,53.9,30.06,East,101,0.0,0.0,97,0.00,CLR,,0.00,WeatherDisplay:10.37,2013-10-01 04:21:00,
2013-10-01 00:26:00,54.6,53.8,30.06,East,101,0.0,0.0,97,0.00,CLR,,0.00,WeatherDisplay:10.37,2013-10-01 04:26:00,
2013-10-01 00:31:00,54.3,53.5,30.06,East,101,0.0,0.0,97,0.00,CLR,,0.00,WeatherDisplay:10.37,2013-10-01 04:31:00,
2013-10-01 00:37:00,54.2,53.4,30.06,East,101,0.0,0.0,97,0.00,CLR,,0.00,WeatherDisplay:10.37,2013-10-01 04:37:00,
2013-10-01 00:42:00,54.2,53.4,30.06,East,100,0.0,0.0,97,0.00,CLR,,0.00,WeatherDisplay:10.37,2013-10-01 04:42:00,
2013-10-01 00:47:00,54.2,53.4,30.06,East,100,0.0,0.0,97,0.00,CLR,,0.00,WeatherDisplay:10.37,2013-10-01 04:47:00,
2013-10-01 00:52:00,54.1,53.3,30.06,East,100,0.0,0.0,97,0.00,CLR,,0.00,WeatherDisplay:10.37,2013-10-01 04:52:00,
2013-10-01 00:57:00,53.9,53.1,30.06,East,100,0.0,0.0,97,0.00,CLR,,0.00,WeatherDisplay:10.37,2013-10-01 04:57:00,
2013-10-01 01:02:00,53.8,53.0,30.06,East,100,0.0,0.0,97,0.00,CLR,,0.00,WeatherDisplay:10.37,2013-10-01 05:02:00,
2013-10-01 01:07:00,53.7,52.9,30.06,East,100,0.0,0.0,97,0.00,CLR,,0.00,WeatherDisplay:10.37,2013-10-01 05:07:00,
2013-10-01 01:12:00,53.8,53.2,30.05,East,100,0.0,0.0,98,0.00,CLR,,0.00,WeatherDisplay:10.37,2013-10-01 05:12:00,
2013-10-01 01:17:00,53.9,53.3,30.05,East,100,0.0,0.0,98,0.00,CLR,,0.00,WeatherDisplay:10.37,2013-10-01 05:17:00,
2013-10-01 01:22:00,53.7,53.1,30.05,East,100,0.0,0.0,98,0.00,CLR,,0.00,WeatherDisplay:10.37,2013-10-01 05:22:00,
2013-10-01 01:27:00,53.7,53.1,30.05,East,100,0.0,0.0,98,0.00,CLR,,0.00,WeatherDisplay:10.37,2013-10-01 05:27:00,
2013-10-01 01:32:00,53.7,53.1,30.05,East,100,0.0,0.0,98,0.00,CLR,,0.00,WeatherDisplay:10.37,2013-10-01 05:32:00,
2013-10-01 01:37:00,53.6,53.0,30.05,East,100,0.0,0.0,98,0.00,CLR,,0.00,WeatherDisplay:10.37,2013-10-01 05:37:00,
2013-10-01 01:42:00,53.5,52.9,30.06,East,100,0.0,0.0,98,0.00,CLR,,0.00,WeatherDisplay:10.37,2013-10-01 05:42:00,
2013-10-01 01:47:00,53.3,52.8,30.06,East,100,0.0,0.0,98,0.00,CLR,,0.00,WeatherDisplay:10.37,2013-10-01 05:47:00,
2013-10-01 01:52:00,53.1,52.6,30.06,East,100,0.0,0.0,98,0.00,CLR,,0.00,WeatherDisplay:10.37,2013-10-01 05:52:00,
2013-10-01 01:57:00,53.2,52.7,30.06,East,100,0.0,0.0,98,0.00,CLR,,0.00,WeatherDisplay:10.37,2013-10-01 05:57:00,
2013-10-01 02:02:00,53.2,52.7,30.06,East,100,0.0,0.0,98,0.00,CLR,,0.00,WeatherDisplay:10.37,2013-10-01 06:02:00,
2013-10-01 02:07:00,53.1,52.6,30.06,East,100,0.0,0.0,98,0.00,CLR,,0.00,WeatherDisplay:10.37,2013-10-01 06:07:00,
2013-10-01 02:12:00,53.2,52.7,30.06,East,100,0.0,0.0,98,0.00,CLR,,0.00,WeatherDisplay:10.37,2013-10-01 06:12:00,
2013-10-01 02:17:00,53.1,52.6,30.06,East,100,0.0,0.0,98,0.00,CLR,,0.00,WeatherDisplay:10.37,2013-10-01 06:17:00,
2013-10-01 02:22:00,53.1,52.6,30.06,East,100,0.0,0.0,98,0.00,CLR,,0.00,WeatherDisplay:10.37,2013-10-01 06:22:00,
2013-10-01 02:27:00,52.9,52.4,30.05,East,101,0.0,0.0,98,0.00,CLR,,0.00,WeatherDisplay:10.37,2013-10-01 06:27:00,
2013-10-01 02:32:00,52.8,52.3,30.05,East,101,0.0,0.0,98,0.00,CLR,,0.00,WeatherDisplay:10.37,2013-10-01 06:32:00,
2013-10-01 02:38:00,52.5,52.0,30.05,East,100,0.0,0.0,98,0.00,CLR,,0.00,WeatherDisplay:10.37,2013-10-01 06:38:00,
2013-10-01 02:43:00,52.3,51.8,30.05,East,100,0.0,0.0,98,0.00,CLR,,0.00,WeatherDisplay:10.37,2013-10-01 06:43:00,
2013-10-01 02:48:00,52.4,51.9,30.05,East,100,0.0,0.0,98,0.00,CLR,,0.00,WeatherDisplay:10.37,2013-10-01 06:48:00,
2013-10-01 02:53:00,52.4,51.9,30.05,East,100,0.0,0.0,98,0.00,CLR,,0.00,WeatherDisplay:10.37,2013-10-01 06:53:00,
2013-10-01 02:58:00,52.4,51.9,30.05,East,100,0.0,0.0,98,0.00,CLR,,0.00,WeatherDisplay:10.37,2013-10-01 06:58:00,
2013-10-01 03:03:00,52.2,51.7,30.05,East,101,0.0,0.0,98,0.00,CLR,,0.00,WeatherDisplay:10.37,2013-10-01 07:03:00,
2013-10-01 03:08:00,52.2,51.7,30.05,East,101,0.0,0.0,98,0.00,CLR,,0.00,WeatherDisplay:10.37,2013-10-01 07:08:00,
2013-10-01 03:13:00,52.2,51.7,30.05,East,100,0.0,0.0,98,0.00,CLR,,0.00,WeatherDisplay:10.37,2013-10-01 07:13:00,
2013-10-01 03:18:00,52.2,51.7,30.05,East,101,0.0,0.0,98,0.00,CLR,,0.00,WeatherDisplay:10.37,2013-10-01 07:18:00,
2013-10-01 03:23:00,52.0,51.5,30.05,East,100,0.0,0.0,98,0.00,CLR,,0.00,WeatherDisplay:10.37,2013-10-01 07:23:00,
2013-10-01 03:28:00,52.0,51.5,30.05,East,100,0.0,0.0,98,0.00,CLR,,0.00,WeatherDisplay:10.37,2013-10-01 07:28:00,
2013-10-01 03:33:00,52.0,51.5,30.05,East,100,0.0,0.0,98,0.00,CLR,,0.00,WeatherDisplay:10.37,2013-10-01 07:33:00,
2013-10-01 03:38:00,51.8,51.3,30.05,East,100,0.0,0.0,98,0.00,CLR,,0.00,WeatherDisplay:10.37,2013-10-01 07:38:00,
2013-10-01 03:43:00,52.0,51.5,30.06,East,100,0.0,0.0,98,0.00,CLR,,0.00,WeatherDisplay:10.37,2013-10-01 07:43:00,
2013-10-01 03:48:00,51.9,51.4,30.06,East,100,0.0,0.0,98,0.00,CLR,,0.00,WeatherDisplay:10.37,2013-10-01 07:48:00,
2013-10-01 03:53:00,51.9,51.4,30.05,East,100,0.0,0.0,98,0.00,CLR,,0.00,WeatherDisplay:10.37,2013-10-01 07:53:00,
2013-10-01 03:58:00,51.7,51.2,30.05,East,100,0.0,0.0,98,0.00,CLR,,0.00,WeatherDisplay:10.37,2013-10-01 07:58:00,
2013-10-01 04:03:00,51.7,51.2,30.05,East,100,0.0,0.0,98,0.00,CLR,,0.00,WeatherDisplay:10.37,2013-10-01 08:03:00,
2013-10-01 04:09:00,51.8,51.3,30.05,East,101,0.0,0.0,98,0.00,CLR,,0.00,WeatherDisplay:10.37,2013-10-01 08:09:00,
2013-10-01 04:14:00,51.7,51.2,30.05,East,100,0.0,0.0,98,0.00,CLR,,0.00,WeatherDisplay:10.37,2013-10-01 08:14:00,
2013-10-01 04:19:00,51.8,51.3,30.05,East,101,0.0,0.0,98,0.00,CLR,,0.00,WeatherDisplay:10.37,2013-10-01 08:19:00,
2013-10-01 04:24:00,51.8,51.3,30.06,East,101,0.0,0.0,98,0.00,CLR,,0.00,WeatherDisplay:10.37,2013-10-01 08:24:00,
2013-10-01 04:29:00,51.7,51.2,30.06,East,101,0.0,0.0,98,0.00,CLR,,0.00,WeatherDisplay:10.37,2013-10-01 08:29:00,
2013-10-01 04:35:00,51.7,51.2,30.06,East,101,0.0,0.0,98,0.00,CLR,,0.00,WeatherDisplay:10.37,2013-10-01 08:35:00,
2013-10-01 04:40:00,51.5,51.0,30.06,East,100,0.0,0.0,98,0.00,CLR,,0.00,WeatherDisplay:10.37,2013-10-01 08:40:00,
2013-10-01 04:45:00,51.2,50.7,30.06,East,100,0.0,0.0,98,0.00,CLR,,0.00,WeatherDisplay:10.37,2013-10-01 08:45:00,
2013-10-01 04:50:00,51.1,50.6,30.06,East,100,0.0,0.0,98,0.00,CLR,,0.00,WeatherDisplay:10.37,2013-10-01 08:50:00,
2013-10-01 04:55:00,51.1,50.6,30.06,East,100,0.0,0.0,98,0.00,CLR,,0.00,WeatherDisplay:10.37,2013-10-01 08:55:00,
2013-10-01 05:00:00,51.0,50.5,30.06,East,101,0.0,0.0,98,0.00,CLR,,0.00,WeatherDisplay:10.37,2013-10-01 09:00:00,
2013-10-01 05:05:00,51.1,50.6,30.06,East,100,0.0,0.0,98,0.00,CLR,,0.00,WeatherDisplay:10.37,2013-10-01 09:05:00,
2013-10-01 05:10:00,51.1,50.6,30.06,East,100,0.0,0.0,98,0.00,CLR,,0.00,WeatherDisplay:10.37,2013-10-01 09:10:00,
2013-10-01 05:15:00,51.1,50.6,30.06,East,101,0.0,0.0,98,0.00,CLR,,0.00,WeatherDisplay:10.37,2013-10-01 09:15:00,
2013-10-01 05:20:00,51.2,50.7,30.06,East,100,0.0,0.0,98,0.00,CLR,,0.00,WeatherDisplay:10.37,2013-10-01 09:20:00,
2013-10-01 05:25:00,51.1,50.6,30.07,East,100,0.0,0.0,98,0.00,CLR,,0.00,WeatherDisplay:10.37,2013-10-01 09:25:00,
2013-10-01 05:30:00,51.0,50.5,30.07,East,101,0.0,0.0,98,0.00,CLR,,0.00,WeatherDisplay:10.37,2013-10-01 09:30:00,
2013-10-01 05:36:00,50.9,50.4,30.07,East,100,0.0,0.0,98,0.00,CLR,,0.00,WeatherDisplay:10.37,2013-10-01 09:36:00,
2013-10-01 05:41:00,50.7,50.2,30.07,East,100,0.0,0.0,98,0.00,CLR,,0.00,WeatherDisplay:10.37,2013-10-01 09:41:00,
2013-10-01 05:46:00,50.6,50.1,30.07,East,100,0.0,0.0,98,0.01,RA,,0.01,WeatherDisplay:10.37,2013-10-01 09:46:00,
2013-10-01 05:51:00,50.8,50.3,30.07,East,101,0.0,0.0,98,0.01,RA,,0.01,WeatherDisplay:10.37,2013-10-01 09:51:00,
2013-10-01 05:56:00,50.8,50.3,30.07,East,100,0.0,0.0,98,0.01,CLR,,0.01,WeatherDisplay:10.37,2013-10-01 09:56:00,
2013-10-01 06:01:00,50.6,50.1,30.07,East,100,0.0,0.0,98,0.01,CLR,,0.01,WeatherDisplay:10.37,2013-10-01 10:01:00,
2013-10-01 06:06:00,50.7,50.2,30.07,East,100,0.0,0.0,98,0.01,CLR,,0.01,WeatherDisplay:10.37,2013-10-01 10:06:00,
2013-10-01 06:11:00,50.6,50.1,30.07,East,101,0.0,0.0,98,0.01,CLR,,0.01,WeatherDisplay:10.37,2013-10-01 10:11:00,
2013-10-01 06:16:00,50.5,50.0,30.08,East,101,0.0,0.0,98,0.01,CLR,,0.01,WeatherDisplay:10.37,2013-10-01 10:16:00,
2013-10-01 06:21:00,50.4,49.9,30.08,East,100,0.0,0.0,98,0.01,CLR,,0.01,WeatherDisplay:10.37,2013-10-01 10:21:00,
2013-10-01 06:26:00,50.4,49.9,30.08,East,100,0.0,0.0,98,0.01,CLR,,0.01,WeatherDisplay:10.37,2013-10-01 10:26:00,
2013-10-01 06:31:00,50.5,50.0,30.08,East,100,0.0,0.0,98,0.01,CLR,,0.01,WeatherDisplay:10.37,2013-10-01 10:31:00,
2013-10-01 06:36:00,50.4,49.9,30.08,East,100,0.0,0.0,98,0.01,CLR,,0.01,WeatherDisplay:10.37,2013-10-01 10:36:00,
2013-10-01 06:41:00,50.5,50.0,30.08,East,100,0.0,0.0,98,0.01,CLR,,0.01,WeatherDisplay:10.37,2013-10-01 10:41:00,
2013-10-01 06:46:00,50.5,50.0,30.09,East,101,0.0,0.0,98,0.00,CLR,,0.01,WeatherDisplay:10.37,2013-10-01 10:46:00,
2013-10-01 06:51:00,50.5,50.0,30.09,East,101,0.0,0.0,98,0.00,CLR,,0.01,WeatherDisplay:10.37,2013-10-01 10:51:00,
2013-10-01 06:56:00,50.6,50.1,30.09,East,100,0.0,0.0,98,0.00,CLR,,0.01,WeatherDisplay:10.37,2013-10-01 10:56:00,
2013-10-01 07:01:00,50.6,50.1,30.09,East,100,0.0,0.0,98,0.00,CLR,,0.01,WeatherDisplay:10.37,2013-10-01 11:01:00,
2013-10-01 07:06:00,50.6,50.3,30.09,East,100,0.0,0.0,99,0.00,CLR,,0.01,WeatherDisplay:10.37,2013-10-01 11:06:00,
2013-10-01 07:11:00,50.6,50.3,30.09,East,100,0.0,0.0,99,0.00,CLR,,0.01,WeatherDisplay:10.37,2013-10-01 11:11:00,
2013-10-01 07:16:00,50.5,50.2,30.09,East,101,0.0,0.0,99,0.00,CLR,,0.01,WeatherDisplay:10.37,2013-10-01 11:16:00,
2013-10-01 07:21:00,50.5,50.2,30.10,East,100,0.0,0.0,99,0.00,CLR,,0.01,WeatherDisplay:10.37,2013-10-01 11:21:00,
2013-10-01 07:26:00,50.6,50.3,30.10,East,100,0.0,0.0,99,0.00,CLR,,0.01,WeatherDisplay:10.37,2013-10-01 11:26:00,
2013-10-01 07:31:00,50.7,50.4,30.10,East,100,0.0,0.0,99,0.00,CLR,,0.01,WeatherDisplay:10.37,2013-10-01 11:31:00,
2013-10-01 07:36:00,50.8,50.5,30.10,East,100,0.0,0.0,99,0.00,CLR,,0.01,WeatherDisplay:10.37,2013-10-01 11:36:00,
2013-10-01 07:41:00,51.0,50.7,30.10,East,101,0.0,0.0,99,0.00,CLR,,0.01,WeatherDisplay:10.37,2013-10-01 11:41:00,
2013-10-01 07:46:00,51.1,50.8,30.10,East,100,0.0,0.0,99,0.00,CLR,,0.01,WeatherDisplay:10.37,2013-10-01 11:46:00,
2013-10-01 07:52:00,51.2,50.9,30.11,East,101,0.0,0.0,99,0.00,CLR,,0.01,WeatherDisplay:10.37,2013-10-01 11:52:00,
2013-10-01 07:57:00,51.1,50.8,30.11,East,100,0.0,0.0,99,0.00,CLR,,0.01,WeatherDisplay:10.37,2013-10-01 11:57:00,
2013-10-01 08:02:00,51.1,50.8,30.11,East,100,0.0,0.0,99,0.00,CLR,,0.01,WeatherDisplay:10.37,2013-10-01 12:02:00,
2013-10-01 08:07:00,51.2,50.9,30.11,East,101,0.0,0.0,99,0.00,CLR,,0.01,WeatherDisplay:10.37,2013-10-01 12:07:00,
2013-10-01 08:12:00,51.4,51.1,30.11,East,100,0.0,0.0,99,0.00,CLR,,0.01,WeatherDisplay:10.37,2013-10-01 12:12:00,
2013-10-01 08:17:00,51.5,51.2,30.11,East,100,0.0,0.0,99,0.00,CLR,,0.01,WeatherDisplay:10.37,2013-10-01 12:17:00,
2013-10-01 08:22:00,51.6,51.3,30.11,East,100,0.0,0.0,99,0.00,CLR,,0.01,WeatherDisplay:10.37,2013-10-01 12:22:00,
2013-10-01 08:27:00,51.6,51.3,30.11,East,100,0.0,0.0,99,0.00,CLR,,0.01,WeatherDisplay:10.37,2013-10-01 12:27:00,
2013-10-01 08:32:00,51.8,51.5,30.11,East,100,0.0,0.0,99,0.00,CLR,,0.01,WeatherDisplay:10.37,2013-10-01 12:32:00,
2013-10-01 08:37:00,52.0,51.7,30.11,East,100,0.0,0.0,99,0.00,CLR,,0.01,WeatherDisplay:10.37,2013-10-01 12:37:00,
2013-10-01 08:42:00,52.2,51.9,30.11,East,100,0.0,0.0,99,0.00,CLR,,0.01,WeatherDisplay:10.37,2013-10-01 12:42:00,
2013-10-01 08:47:00,52.5,52.2,30.11,East,100,0.0,0.0,99,0.00,CLR,,0.01,WeatherDisplay:10.37,2013-10-01 12:47:00,
2013-10-01 08:53:00,52.7,52.4,30.11,East,101,0.0,0.0,99,0.00,CLR,,0.01,WeatherDisplay:10.37,2013-10-01 12:53:00,
2013-10-01 08:58:00,52.9,52.6,30.11,East,100,0.0,0.0,99,0.00,CLR,,0.01,WeatherDisplay:10.37,2013-10-01 12:58:00,
2013-10-01 09:03:00,53.2,52.9,30.12,East,101,0.0,0.0,99,0.00,CLR,,0.01,WeatherDisplay:10.37,2013-10-01 13:03:00,
2013-10-01 09:08:00,53.6,53.3,30.12,East,100,0.0,0.0,99,0.00,CLR,,0.01,WeatherDisplay:10.37,2013-10-01 13:08:00,
2013-10-01 09:13:00,53.8,53.5,30.12,East,100,0.0,0.0,99,0.00,CLR,,0.01,WeatherDisplay:10.37,2013-10-01 13:13:00,
2013-10-01 09:18:00,54.3,54.0,30.11,East,101,0.0,0.0,99,0.00,CLR,,0.01,WeatherDisplay:10.37,2013-10-01 13:18:00,
2013-10-01 09:23:00,54.9,54.6,30.11,East,100,0.0,0.0,99,0.00,CLR,,0.01,WeatherDisplay:10.37,2013-10-01 13:23:00,
2013-10-01 09:28:00,55.4,55.1,30.12,East,100,0.0,0.0,99,0.00,CLR,,0.01,WeatherDisplay:10.37,2013-10-01 13:28:00,
2013-10-01 09:33:00,55.8,55.5,30.12,ESE,110,0.0,0.0,99,0.00,CLR,,0.01,WeatherDisplay:10.37,2013-10-01 13:33:00,
2013-10-01 09:38:00,56.3,56.0,30.12,ESE,110,0.0,0.0,99,0.00,CLR,,0.01,WeatherDisplay:10.37,2013-10-01 13:38:00,
2013-10-01 09:43:00,56.7,56.4,30.12,ESE,110,0.0,0.0,99,0.00,CLR,,0.01,WeatherDisplay:10.37,2013-10-01 13:43:00,
2013-10-01 09:48:00,57.2,56.9,30.12,SSE,162,0.0,0.0,99,0.00,CLR,,0.01,WeatherDisplay:10.37,2013-10-01 13:48:00,
2013-10-01 09:53:00,58.0,57.7,30.12,SE,143,0.0,0.0,99,0.00,CLR,,0.01,WeatherDisplay:10.37,2013-10-01 13:53:00,
2013-10-01 09:58:00,58.4,58.1,30.12,ESE,110,2.0,2.0,99,0.00,CLR,,0.01,WeatherDisplay:10.37,2013-10-01 13:58:00,
2013-10-01 10:03:00,59.0,58.7,30.12,SSE,148,1.1,1.1,99,0.00,CLR,,0.01,WeatherDisplay:10.37,2013-10-01 14:03:00,
2013-10-01 10:08:00,59.9,59.6,30.12,East,99,1.1,1.1,99,0.00,CLR,,0.01,WeatherDisplay:10.37,2013-10-01 14:08:00,
2013-10-01 10:13:00,60.7,60.4,30.12,SSE,160,0.0,0.0,99,0.00,CLR,,0.01,WeatherDisplay:10.37,2013-10-01 14:13:00,
2013-10-01 10:18:00,61.6,61.3,30.12,ESE,116,0.0,0.0,99,0.00,CLR,,0.01,WeatherDisplay:10.37,2013-10-01 14:18:00,
2013-10-01 10:23:00,62.3,61.7,30.12,ESE,111,0.0,0.0,98,0.00,CLR,,0.01,WeatherDisplay:10.37,2013-10-01 14:23:00,
2013-10-01 10:28:00,63.4,61.9,30.12,ESE,112,0.0,0.0,95,0.00,CLR,,0.01,WeatherDisplay:10.37,2013-10-01 14:28:00,
2013-10-01 10:33:00,64.5,62.1,30.12,ESE,112,0.0,0.0,92,0.00,CLR,,0.01,WeatherDisplay:10.37,2013-10-01 14:33:00,
2013-10-01 10:38:00,65.6,62.6,30.12,ESE,114,0.0,0.0,90,0.00,CLR,,0.01,WeatherDisplay:10.37,2013-10-01 14:38:00,
2013-10-01 10:43:00,66.6,62.3,30.12,ESE,113,1.1,1.1,86,0.00,CLR,,0.01,WeatherDisplay:10.37,2013-10-01 14:43:00,
2013-10-01 10:48:00,67.6,62.6,30.11,ESE,113,0.0,0.0,84,0.00,CLR,,0.01,WeatherDisplay:10.37,2013-10-01 14:48:00,
2013-10-01 10:53:00,68.6,62.5,30.11,ESE,108,2.3,2.3,81,0.00,CLR,,0.01,WeatherDisplay:10.37,2013-10-01 14:53:00,
2013-10-01 10:58:00,69.5,63.1,30.11,ESE,105,1.1,0.0,80,0.00,CLR,,0.01,WeatherDisplay:10.37,2013-10-01 14:58:00,
2013-10-01 11:03:00,70.5,63.7,30.11,ESE,107,0.0,0.0,79,0.00,CLR,,0.01,WeatherDisplay:10.37,2013-10-01 15:03:00,
2013-10-01 11:08:00,71.5,62.8,30.11,ESE,108,1.1,1.1,74,0.00,CLR,,0.01,WeatherDisplay:10.37,2013-10-01 15:08:00,
2013-10-01 11:13:00,72.5,63.0,30.11,NNE,12,2.3,2.3,72,0.00,CLR,,0.01,WeatherDisplay:10.37,2013-10-01 15:13:00,
2013-10-01 11:18:00,73.4,63.0,30.10,North,354,1.1,1.1,70,0.00,CLR,,0.01,WeatherDisplay:10.37,2013-10-01 15:18:00,
2013-10-01 11:24:00,74.3,63.1,30.10,SE,139,2.3,2.3,68,0.00,CLR,,0.01,WeatherDisplay:10.37,2013-10-01 15:24:00,
2013-10-01 11:29:00,74.8,61.4,30.10,SW,231,3.5,3.5,63,0.00,CLR,,0.01,WeatherDisplay:10.37,2013-10-01 15:29:00,
2013-10-01 11:34:00,75.1,60.7,30.10,SW,232,4.0,4.0,61,0.00,CLR,,0.01,WeatherDisplay:10.37,2013-10-01 15:34:00,
2013-10-01 11:39:00,75.5,61.1,30.10,SSW,210,2.3,2.3,61,0.00,CLR,,0.01,WeatherDisplay:10.37,2013-10-01 15:39:00,
2013-10-01 11:44:00,76.1,61.7,30.10,SE,144,1.1,1.1,61,0.00,CLR,,0.01,WeatherDisplay:10.37,2013-10-01 15:44:00,
2013-10-01 11:49:00,76.6,61.7,30.10,North,6,3.5,3.5,60,0.00,CLR,,0.01,WeatherDisplay:10.37,2013-10-01 15:49:00,
2013-10-01 11:54:00,77.0,61.1,30.09,NNW,346,1.1,1.1,58,0.00,CLR,,0.01,WeatherDisplay:10.37,2013-10-01 15:54:00,
2013-10-01 11:59:00,77.4,61.5,30.09,WSW,239,2.3,2.3,58,0.00,CLR,,0.01,WeatherDisplay:10.37,2013-10-01 15:59:00,
2013-10-01 12:04:00,77.8,62.8,30.09,North,8,2.3,2.3,60,0.00,CLR,,0.01,WeatherDisplay:10.37,2013-10-01 16:04:00,
2013-10-01 12:09:00,78.3,61.3,30.09,WNW,295,3.5,3.5,56,0.00,CLR,,0.01,WeatherDisplay:10.37,2013-10-01 16:09:00,
2013-10-01 12:14:00,78.4,61.9,30.09,SW,224,0.0,0.0,57,0.00,CLR,,0.01,WeatherDisplay:10.37,2013-10-01 16:14:00,
2013-10-01 12:19:00,78.6,61.1,30.09,WSW,253,4.0,4.0,55,0.00,CLR,,0.01,WeatherDisplay:10.37,2013-10-01 16:19:00,
2013-10-01 12:24:00,78.5,61.0,30.08,SSE,150,1.1,1.1,55,0.00,CLR,,0.01,WeatherDisplay:10.37,2013-10-01 16:24:00,
2013-10-01 12:29:00,79.0,62.5,30.08,WSW,237,3.5,3.5,57,0.00,CLR,,0.01,WeatherDisplay:10.37,2013-10-01 16:29:00,
2013-10-01 12:31:00,79.1,62.6,30.08,SW,231,4.0,4.0,57,0.00,CLR,,0.01,WeatherDisplay:10.37,2013-10-01 16:31:00,
2013-10-01 12:36:00,79.3,62.7,30.08,North,354,2.0,2.0,57,0.00,CLR,,0.01,WeatherDisplay:10.37,2013-10-01 16:36:00,
2013-10-01 12:41:00,79.7,62.1,30.08,SSE,165,3.5,3.5,55,0.00,CLR,,0.01,WeatherDisplay:10.37,2013-10-01 16:41:00,
2013-10-01 12:46:00,80.1,60.9,30.08,WSW,243,2.3,2.3,52,0.00,CLR,,0.01,WeatherDisplay:10.37,2013-10-01 16:46:00,
2013-10-01 12:51:00,79.8,61.1,30.08,WNW,293,2.3,2.3,53,0.00,CLR,,0.01,WeatherDisplay:10.37,2013-10-01 16:51:00,
2013-10-01 12:56:00,79.9,61.2,30.08,WSW,240,3.0,3.0,53,0.00,CLR,,0.01,WeatherDisplay:10.37,2013-10-01 16:56:00,
2013-10-01 13:01:00,80.1,61.4,30.07,South,170,1.1,0.0,53,0.00,CLR,,0.01,WeatherDisplay:10.37,2013-10-01 17:01:00,
2013-10-01 13:06:00,80.9,63.2,30.07,SSE,163,0.0,0.0,55,0.00,CLR,,0.01,WeatherDisplay:10.37,2013-10-01 17:06:00,
2013-10-01 13:11:00,81.4,60.4,30.07,NE,36,3.5,3.5,49,0.00,CLR,,0.01,WeatherDisplay:10.37,2013-10-01 17:11:00,
2013-10-01 13:16:00,81.2,61.4,30.06,WSW,240,0.0,0.0,51,0.00,CLR,,0.01,WeatherDisplay:10.37,2013-10-01 17:16:00,
2013-10-01 13:21:00,81.2,60.2,30.06,WSW,238,3.5,3.5,49,0.00,CLR,,0.01,WeatherDisplay:10.37,2013-10-01 17:21:00,
2013-10-01 13:26:00,81.3,60.9,30.06,North,1,3.5,3.5,50,0.00,CLR,,0.01,WeatherDisplay:10.37,2013-10-01 17:26:00,
2013-10-01 13:31:00,81.7,61.2,30.06,WSW,255,1.1,1.1,50,0.00,CLR,,0.01,WeatherDisplay:10.37,2013-10-01 17:31:00,
2013-10-01 13:36:00,82.0,61.0,30.06,ESE,117,2.0,2.0,49,0.00,CLR,,0.01,WeatherDisplay:10.37,2013-10-01 17:36:00,
2013-10-01 13:42:00,82.4,60.7,30.05,West,269,0.0,0.0,48,0.00,CLR,,0.01,WeatherDisplay:10.37,2013-10-01 17:42:00,
2013-10-01 13:47:00,82.4,60.7,30.05,NNW,337,0.0,0.0,48,0.00,CLR,,0.01,WeatherDisplay:10.37,2013-10-01 17:47:00,
2013-10-01 13:52:00,82.3,59.4,30.05,WSW,237,0.0,0.0,46,0.00,CLR,,0.01,WeatherDisplay:10.37,2013-10-01 17:52:00,
2013-10-01 13:57:00,82.6,60.9,30.05,East,84,1.1,0.0,48,0.00,CLR,,0.01,WeatherDisplay:10.37,2013-10-01 17:57:00,
2013-10-01 14:02:00,83.4,61.1,30.04,ESE,106,2.3,2.3,47,0.00,CLR,,0.01,WeatherDisplay:10.37,2013-10-01 18:02:00,
2013-10-01 14:07:00,83.9,61.5,30.04,ESE,120,2.3,2.3,47,0.00,CLR,,0.01,WeatherDisplay:10.37,2013-10-01 18:07:00,
2013-10-01 14:13:00,84.0,61.0,30.04,SW,236,1.1,1.1,46,0.00,CLR,,0.01,WeatherDisplay:10.37,2013-10-01 18:13:00,
2013-10-01 14:18:00,83.4,60.4,30.04,SW,233,3.5,3.5,46,0.00,CLR,,0.01,WeatherDisplay:10.37,2013-10-01 18:18:00,
2013-10-01 14:23:00,83.2,60.3,30.03,North,353,2.3,2.3,46,0.00,CLR,,0.01,WeatherDisplay:10.37,2013-10-01 18:23:00,
2013-10-01 14:28:00,83.3,59.7,30.04,ESE,107,3.0,3.0,45,0.00,CLR,,0.01,WeatherDisplay:10.37,2013-10-01 18:28:00,
2013-10-01 14:33:00,82.9,60.0,30.04,SW,214,3.5,3.5,46,0.00,CLR,,0.01,WeatherDisplay:10.37,2013-10-01 18:33:00,
2013-10-01 14:38:00,82.3,60.1,30.03,South,186,0.0,0.0,47,0.00,CLR,,0.01,WeatherDisplay:10.37,2013-10-01 18:38:00,
2013-10-01 14:43:00,82.5,62.5,30.03,SW,226,0.0,0.0,51,0.00,CLR,,0.01,WeatherDisplay:10.37,2013-10-01 18:43:00,
2013-10-01 14:49:00,83.0,61.9,30.03,NNW,328,1.1,1.1,49,0.00,CLR,,0.01,WeatherDisplay:10.37,2013-10-01 18:49:00,
2013-10-01 14:54:00,82.3,59.4,30.03,SSW,196,2.3,2.3,46,0.00,CLR,,0.01,WeatherDisplay:10.37,2013-10-01 18:54:00,
2013-10-01 14:58:00,82.2,61.7,30.03,WSW,240,2.3,2.3,50,0.00,CLR,,0.01,WeatherDisplay:10.37,2013-10-01 18:58:00,
2013-10-01 15:04:00,82.7,62.2,30.03,NNW,346,2.0,2.0,50,0.00,CLR,,0.01,WeatherDisplay:10.37,2013-10-01 19:04:00,
2013-10-01 15:09:00,83.0,61.3,30.03,North,5,0.0,0.0,48,0.00,CLR,,0.01,WeatherDisplay:10.37,2013-10-01 19:09:00,
2013-10-01 15:14:00,83.5,61.1,30.03,WSW,245,1.1,1.1,47,0.00,CLR,,0.01,WeatherDisplay:10.37,2013-10-01 19:14:00,
2013-10-01 15:19:00,83.8,61.4,30.02,South,183,2.3,2.3,47,0.00,CLR,,0.01,WeatherDisplay:10.37,2013-10-01 19:19:00,
2013-10-01 15:24:00,84.6,62.1,30.02,South,187,1.1,1.1,47,0.00,CLR,,0.01,WeatherDisplay:10.37,2013-10-01 19:24:00,
2013-10-01 15:29:00,85.0,61.3,30.02,SE,141,2.3,2.3,45,0.00,CLR,,0.01,WeatherDisplay:10.37,2013-10-01 19:29:00,
2013-10-01 15:34:00,85.2,61.5,30.02,ESE,114,1.1,1.1,45,0.00,CLR,,0.01,WeatherDisplay:10.37,2013-10-01 19:34:00,
2013-10-01 15:39:00,85.6,61.2,30.02,West,269,3.5,3.5,44,0.00,CLR,,0.01,WeatherDisplay:10.37,2013-10-01 19:39:00,
2013-10-01 15:44:00,85.6,63.1,30.01,West,264,2.3,2.3,47,0.00,CLR,,0.01,WeatherDisplay:10.37,2013-10-01 19:44:00,
2013-10-01 15:49:00,85.4,61.6,30.02,ENE,67,0.0,0.0,45,0.00,CLR,,0.01,WeatherDisplay:10.37,2013-10-01 19:49:00,
2013-10-01 15:54:00,84.9,61.8,30.01,West,276,0.0,0.0,46,0.00,CLR,,0.01,WeatherDisplay:10.37,2013-10-01 19:54:00,
2013-10-01 15:59:00,84.9,61.2,30.01,SW,214,2.0,2.0,45,0.00,CLR,,0.01,WeatherDisplay:10.37,2013-10-01 19:59:00,
2013-10-01 16:04:00,85.2,62.1,30.01,SW,229,1.1,0.0,46,0.00,CLR,,0.01,WeatherDisplay:10.37,2013-10-01 20:04:00,
2013-10-01 16:09:00,85.8,60.7,30.01,East,92,0.0,0.0,43,0.00,CLR,,0.01,WeatherDisplay:10.37,2013-10-01 20:09:00,
2013-10-01 16:14:00,86.2,62.4,30.01,SW,217,3.5,3.5,45,0.00,CLR,,0.01,WeatherDisplay:10.37,2013-10-01 20:14:00,
2013-10-01 16:19:00,86.0,62.8,30.01,SW,231,0.0,0.0,46,0.00,CLR,,0.01,WeatherDisplay:10.37,2013-10-01 20:19:00,
2013-10-01 16:24:00,84.5,60.8,30.01,SSW,210,0.0,0.0,45,0.00,CLR,,0.01,WeatherDisplay:10.37,2013-10-01 20:24:00,
2013-10-01 16:29:00,83.9,62.7,30.01,SSW,210,0.0,0.0,49,0.00,CLR,,0.01,WeatherDisplay:10.37,2013-10-01 20:29:00,
2013-10-01 16:34:00,84.2,64.7,30.01,SSW,210,0.0,0.0,52,0.00,CLR,,0.01,WeatherDisplay:10.37,2013-10-01 20:34:00,
2013-10-01 16:39:00,84.8,61.1,30.01,WSW,255,0.0,0.0,45,0.00,CLR,,0.01,WeatherDisplay:10.37,2013-10-01 20:39:00,
2013-10-01 16:44:00,84.8,60.5,30.01,WSW,253,0.0,0.0,44,0.00,CLR,,0.01,WeatherDisplay:10.37,2013-10-01 20:44:00,
2013-10-01 16:49:00,85.2,60.8,30.01,WSW,252,0.0,0.0,44,0.00,CLR,,0.01,WeatherDisplay:10.37,2013-10-01 20:49:00,
2013-10-01 16:54:00,84.7,59.7,30.01,ESE,110,0.0,0.0,43,0.00,CLR,,0.01,WeatherDisplay:10.37,2013-10-01 20:54:00,
2013-10-01 16:59:00,84.3,61.9,30.01,ESE,110,0.0,0.0,47,0.00,CLR,,0.01,WeatherDisplay:10.37,2013-10-01 20:59:00,
2013-10-01 17:05:00,83.4,60.4,30.01,WSW,238,0.0,0.0,46,0.00,CLR,,0.01,WeatherDisplay:10.37,2013-10-01 21:05:00,
2013-10-01 17:10:00,83.0,61.3,30.01,SW,236,0.0,0.0,48,0.00,CLR,,0.01,WeatherDisplay:10.37,2013-10-01 21:10:00,
2013-10-01 17:15:00,82.8,61.7,30.01,SW,236,0.0,0.0,49,0.00,CLR,,0.01,WeatherDisplay:10.37,2013-10-01 21:15:00,
2013-10-01 17:20:00,82.8,63.4,30.01,SSE,160,0.0,0.0,52,0.00,CLR,,0.01,WeatherDisplay:10.37,2013-10-01 21:20:00,
2013-10-01 17:25:00,82.6,62.1,30.01,SSE,162,0.0,0.0,50,0.00,CLR,,0.01,WeatherDisplay:10.37,2013-10-01 21:25:00,
2013-10-01 17:30:00,82.3,62.9,30.01,SSE,162,0.0,0.0,52,0.00,CLR,,0.01,WeatherDisplay:10.37,2013-10-01 21:30:00,
2013-10-01 17:35:00,81.8,61.3,30.01,SW,217,0.0,0.0,50,0.00,CLR,,0.01,WeatherDisplay:10.37,2013-10-01 21:35:00,
2013-10-01 17:40:00,81.2,62.4,30.01,SW,217,0.0,0.0,53,0.00,CLR,,0.01,WeatherDisplay:10.37,2013-10-01 21:40:00,
2013-10-01 17:45:00,81.0,64.3,30.01,SW,217,0.0,0.0,57,0.00,CLR,,0.01,WeatherDisplay:10.37,2013-10-01 21:45:00,
2013-10-01 17:50:00,80.3,63.2,30.01,SSW,207,1.1,1.1,56,0.00,CLR,,0.01,WeatherDisplay:10.37,2013-10-01 21:50:00,
2013-10-01 17:55:00,80.0,63.4,30.01,SSW,207,0.0,0.0,57,0.00,CLR,,0.01,WeatherDisplay:10.37,2013-10-01 21:55:00,
2013-10-01 18:00:00,79.7,63.6,30.02,SSW,207,0.0,0.0,58,0.00,CLR,,0.01,WeatherDisplay:10.37,2013-10-01 22:00:00,
2013-10-01 18:05:00,79.7,64.6,30.02,SSW,207,0.0,0.0,60,0.00,CLR,,0.01,WeatherDisplay:10.37,2013-10-01 22:05:00,
2013-10-01 18:10:00,79.2,63.6,30.02,SSW,207,0.0,0.0,59,0.00,CLR,,0.01,WeatherDisplay:10.37,2013-10-01 22:10:00,
2013-10-01 18:15:00,78.7,64.6,30.02,SSW,207,0.0,0.0,62,0.00,CLR,,0.01,WeatherDisplay:10.37,2013-10-01 22:15:00,
2013-10-01 18:20:00,78.0,63.9,30.02,SSW,207,0.0,0.0,62,0.00,CLR,,0.01,WeatherDisplay:10.37,2013-10-01 22:20:00,
2013-10-01 18:25:00,77.2,63.6,30.02,SSW,207,0.0,0.0,63,0.00,CLR,,0.01,WeatherDisplay:10.37,2013-10-01 22:25:00,
2013-10-01 18:30:00,76.4,63.8,30.02,SSW,207,0.0,0.0,65,0.00,CLR,,0.01,WeatherDisplay:10.37,2013-10-01 22:30:00,
2013-10-01 18:35:00,75.8,63.6,30.02,SSW,207,0.0,0.0,66,0.00,CLR,,0.01,WeatherDisplay:10.37,2013-10-01 22:35:00,
2013-10-01 18:40:00,75.2,63.9,30.02,SSW,207,0.0,0.0,68,0.00,CLR,,0.01,WeatherDisplay:10.37,2013-10-01 22:40:00,
2013-10-01 18:45:00,74.6,64.2,30.02,SSW,207,0.0,0.0,70,0.00,CLR,,0.01,WeatherDisplay:10.37,2013-10-01 22:45:00,
2013-10-01 18:50:00,74.0,64.0,30.02,SSW,207,0.0,0.0,71,0.00,CLR,,0.01,WeatherDisplay:10.37,2013-10-01 22:50:00,
2013-10-01 18:55:00,73.5,63.9,30.02,SSW,207,0.0,0.0,72,0.00,CLR,,0.01,WeatherDisplay:10.37,2013-10-01 22:55:00,
2013-10-01 19:00:00,72.8,63.6,30.02,SSW,207,0.0,0.0,73,0.00,CLR,,0.01,WeatherDisplay:10.37,2013-10-01 23:00:00,
2013-10-01 19:05:00,72.3,63.5,30.03,SSW,207,0.0,0.0,74,0.00,CLR,,0.01,WeatherDisplay:10.37,2013-10-01 23:05:00,
2013-10-01 19:11:00,71.8,63.4,30.03,SSW,207,0.0,0.0,75,0.00,CLR,,0.01,WeatherDisplay:10.37,2013-10-01 23:11:00,
2013-10-01 19:16:00,71.3,63.3,30.03,SSW,207,0.0,0.0,76,0.00,CLR,,0.01,WeatherDisplay:10.37,2013-10-01 23:16:00,
2013-10-01 19:20:00,70.9,63.3,30.03,SSW,207,0.0,0.0,77,0.00,CLR,,0.01,WeatherDisplay:10.37,2013-10-01 23:20:00,
2013-10-01 19:25:00,70.4,63.6,30.03,SSW,207,0.0,0.0,79,0.00,CLR,,0.01,WeatherDisplay:10.37,2013-10-01 23:25:00,
2013-10-01 19:30:00,69.9,63.1,30.03,SSW,207,0.0,0.0,79,0.00,CLR,,0.01,WeatherDisplay:10.37,2013-10-01 23:30:00,
2013-10-01 19:35:00,69.4,63.0,30.03,SSW,207,0.0,0.0,80,0.00,CLR,,0.01,WeatherDisplay:10.37,2013-10-01 23:35:00,
2013-10-01 19:40:00,69.0,63.3,30.03,SSW,207,0.0,0.0,82,0.00,CLR,,0.01,WeatherDisplay:10.37,2013-10-01 23:40:00,
2013-10-01 19:45:00,68.7,63.0,30.03,SSW,207,0.0,0.0,82,0.00,CLR,,0.01,WeatherDisplay:10.37,2013-10-01 23:45:00,
2013-10-01 19:50:00,68.3,62.9,30.03,SSW,207,0.0,0.0,83,0.00,CLR,,0.01,WeatherDisplay:10.37,2013-10-01 23:50:00,
2013-10-01 19:55:00,68.0,63.0,30.04,SSW,207,0.0,0.0,84,0.00,CLR,,0.01,WeatherDisplay:10.37,2013-10-01 23:55:00,
2013-10-01 20:00:00,67.7,63.0,30.04,SSW,207,0.0,0.0,85,0.00,CLR,,0.01,WeatherDisplay:10.37,2013-10-02 00:00:00,
2013-10-01 20:05:00,67.4,62.7,30.04,SSW,207,0.0,0.0,85,0.00,CLR,,0.01,WeatherDisplay:10.37,2013-10-02 00:05:00,
2013-10-01 20:10:00,67.3,63.0,30.04,SSW,207,0.0,0.0,86,0.00,CLR,,0.01,WeatherDisplay:10.37,2013-10-02 00:10:00,
2013-10-01 20:15:00,67.1,62.8,30.04,SSW,207,0.0,0.0,86,0.00,CLR,,0.01,WeatherDisplay:10.37,2013-10-02 00:15:00,
2013-10-01 20:18:00,67.0,62.7,30.04,SSW,207,0.0,0.0,86,0.00,CLR,,0.01,WeatherDisplay:10.37,2013-10-02 00:18:00,
2013-10-01 20:23:00,66.8,62.8,30.04,SSW,207,0.0,0.0,87,0.00,CLR,,0.01,WeatherDisplay:10.37,2013-10-02 00:23:00,
2013-10-01 20:28:00,66.6,62.6,30.05,SSW,207,0.0,0.0,87,0.00,CLR,,0.01,WeatherDisplay:10.37,2013-10-02 00:28:00,
2013-10-01 20:33:00,66.4,62.7,30.05,SSW,207,0.0,0.0,88,0.00,CLR,,0.01,WeatherDisplay:10.37,2013-10-02 00:33:00,
2013-10-01 20:38:00,66.1,62.4,30.05,SSW,207,0.0,0.0,88,0.00,CLR,,0.01,WeatherDisplay:10.37,2013-10-02 00:38:00,
2013-10-01 20:43:00,65.9,62.6,30.05,SSW,207,0.0,0.0,89,0.00,CLR,,0.01,WeatherDisplay:10.37,2013-10-02 00:43:00,
2013-10-01 20:48:00,65.6,62.3,30.05,SSW,207,0.0,0.0,89,0.00,CLR,,0.01,WeatherDisplay:10.37,2013-10-02 00:48:00,
2013-10-01 20:53:00,65.4,62.4,30.05,SSW,205,0.0,0.0,90,0.00,CLR,,0.01,WeatherDisplay:10.37,2013-10-02 00:53:00,
2013-10-01 20:58:00,65.4,62.4,30.05,SSW,195,0.0,0.0,90,0.00,CLR,,0.01,WeatherDisplay:10.37,2013-10-02 00:58:00,
2013-10-01 21:03:00,65.2,62.5,30.05,SSW,195,0.0,0.0,91,0.00,CLR,,0.01,WeatherDisplay:10.37,2013-10-02 01:03:00,
2013-10-01 21:08:00,65.1,62.4,30.05,SSW,195,0.0,0.0,91,0.00,CLR,,0.01,WeatherDisplay:10.37,2013-10-02 01:08:00,
2013-10-01 21:13:00,64.9,62.2,30.05,SSW,196,0.0,0.0,91,0.00,CLR,,0.01,WeatherDisplay:10.37,2013-10-02 01:13:00,
2013-10-01 21:18:00,64.7,62.0,30.05,SSW,195,0.0,0.0,91,0.00,CLR,,0.01,WeatherDisplay:10.37,2013-10-02 01:18:00,
2013-10-01 21:23:00,64.6,62.2,30.05,SSW,195,0.0,0.0,92,0.00,CLR,,0.01,WeatherDisplay:10.37,2013-10-02 01:23:00,
2013-10-01 21:28:00,64.5,62.1,30.05,SSW,196,0.0,0.0,92,0.00,CLR,,0.01,WeatherDisplay:10.37,2013-10-02 01:28:00,
2013-10-01 21:33:00,64.5,62.4,30.06,SSW,196,0.0,0.0,93,0.00,CLR,,0.01,WeatherDisplay:10.37,2013-10-02 01:33:00,
2013-10-01 21:38:00,64.3,61.9,30.06,SSW,196,0.0,0.0,92,0.00,CLR,,0.01,WeatherDisplay:10.37,2013-10-02 01:38:00,
2013-10-01 21:43:00,64.2,62.1,30.06,SSW,195,0.0,0.0,93,0.00,CLR,,0.01,WeatherDisplay:10.37,2013-10-02 01:43:00,
2013-10-01 21:48:00,64.0,61.6,30.06,SSW,195,0.0,0.0,92,0.00,CLR,,0.01,WeatherDisplay:10.37,2013-10-02 01:48:00,
2013-10-01 21:53:00,63.8,61.7,30.06,SSW,195,0.0,0.0,93,0.00,CLR,,0.01,WeatherDisplay:10.37,2013-10-02 01:53:00,
2013-10-01 21:58:00,63.6,61.5,30.06,SSW,195,0.0,0.0,93,0.00,CLR,,0.01,WeatherDisplay:10.37,2013-10-02 01:58:00,
2013-10-01 22:03:00,63.3,61.2,30.06,SSW,195,0.0,0.0,93,0.00,CLR,,0.01,WeatherDisplay:10.37,2013-10-02 02:03:00,
2013-10-01 22:08:00,63.2,61.4,30.06,SSW,195,0.0,0.0,94,0.00,CLR,,0.01,WeatherDisplay:10.37,2013-10-02 02:08:00,
2013-10-01 22:13:00,63.2,61.4,30.06,SSW,196,0.0,0.0,94,0.00,CLR,,0.01,WeatherDisplay:10.37,2013-10-02 02:13:00,
2013-10-01 22:18:00,63.2,61.4,30.06,SSW,195,0.0,0.0,94,0.00,CLR,,0.01,WeatherDisplay:10.37,2013-10-02 02:18:00,
2013-10-01 22:23:00,63.1,61.3,30.06,SSW,195,0.0,0.0,94,0.00,CLR,,0.01,WeatherDisplay:10.37,2013-10-02 02:23:00,
2013-10-01 22:28:00,63.0,61.2,30.07,SSW,196,0.0,0.0,94,0.00,CLR,,0.01,WeatherDisplay:10.37,2013-10-02 02:28:00,
2013-10-01 22:33:00,62.9,61.4,30.07,SSW,195,0.0,0.0,95,0.00,CLR,,0.01,WeatherDisplay:10.37,2013-10-02 02:33:00,
2013-10-01 22:38:00,62.8,61.3,30.07,SSW,195,0.0,0.0,95,0.00,CLR,,0.01,WeatherDisplay:10.37,2013-10-02 02:38:00,
2013-10-01 22:43:00,62.7,61.2,30.07,SSW,196,0.0,0.0,95,0.00,CLR,,0.01,WeatherDisplay:10.37,2013-10-02 02:43:00,
2013-10-01 22:48:00,62.6,61.1,30.07,SSW,194,0.0,0.0,95,0.00,CLR,,0.01,WeatherDisplay:10.37,2013-10-02 02:48:00,
2013-10-01 22:53:00,62.5,61.0,30.07,SSW,195,0.0,0.0,95,0.00,CLR,,0.01,WeatherDisplay:10.37,2013-10-02 02:53:00,
2013-10-01 22:58:00,62.3,60.8,30.07,SSW,194,0.0,0.0,95,0.00,CLR,,0.01,WeatherDisplay:10.37,2013-10-02 02:58:00,
2013-10-01 23:03:00,62.1,60.7,30.07,SSW,194,0.0,0.0,95,0.00,CLR,,0.01,WeatherDisplay:10.37,2013-10-02 03:03:00,
2013-10-01 23:08:00,61.9,60.5,30.07,SSW,194,0.0,0.0,95,0.00,CLR,,0.01,WeatherDisplay:10.37,2013-10-02 03:08:00,
2013-10-01 23:13:00,61.8,60.4,30.07,SSW,195,0.0,0.0,95,0.00,CLR,,0.01,WeatherDisplay:10.37,2013-10-02 03:13:00,
2013-10-01 23:18:00,61.8,60.6,30.07,SSW,194,0.0,0.0,96,0.00,CLR,,0.01,WeatherDisplay:10.37,2013-10-02 03:18:00,
2013-10-01 23:23:00,61.8,60.6,30.07,SSW,194,0.0,0.0,96,0.00,CLR,,0.01,WeatherDisplay:10.37,2013-10-02 03:23:00,
2013-10-01 23:28:00,61.7,60.5,30.07,SSW,194,0.0,0.0,96,0.00,CLR,,0.01,WeatherDisplay:10.37,2013-10-02 03:28:00,
2013-10-01 23:33:00,61.6,60.4,30.07,SSW,194,0.0,0.0,96,0.00,CLR,,0.01,WeatherDisplay:10.37,2013-10-02 03:33:00,
2013-10-01 23:38:00,61.5,60.3,30.07,SSW,194,0.0,0.0,96,0.00,CLR,,0.01,WeatherDisplay:10.37,2013-10-02 03:38:00,
2013-10-01 23:44:00,61.5,60.3,30.07,SSW,194,0.0,0.0,96,0.00,CLR,,0.01,WeatherDisplay:10.37,2013-10-02 03:44:00,
2013-10-01 23:49:00,61.4,60.2,30.07,SSW,194,0.0,0.0,96,0.00,CLR,,0.01,WeatherDisplay:10.37,2013-10-02 03:49:00,
2013-10-01 23:54:00,61.5,60.3,30.07,SSW,194,0.0,0.0,96,0.00,CLR,,0.01,WeatherDisplay:10.37,2013-10-02 03:54:00,
2013-10-01 23:59:00,61.3,60.2,30.07,SSW,194,0.0,0.0,96,0.00,CLR,,0.01,WeatherDisplay:10.37,2013-10-02 03:59:00,